Погода в Поныри

Погода в Поныри : погода сейчас, прогноз погоды и архив. Всё, что Вы хотите узнать о погоде в Поныри!

Хотите узнать прогноз погоды в Поныри? Тогда Вам сюда: Погода в Поныри

Поиск расширенной информации на нашем сайте:

Другие новости

Новости СМИ2

Главная страница сайта

Новости сайта

02.10.2013

Напоминаем, что на нашем новом сайте вы можете получить высокодетализированные прогнозы погоды по пунктам России, СНГ и мира (включающие важные для авиации метеовеличины, такие как направление и скорость ветра, видимость, явления погоды, количество и форма облачности, нижняя и верхняя граница облачности), а также ознакомиться с разнообразными материалами по авиационной метеорологии и подборкой полезных ссылок на эту тему.

Сайт Метеоцентр.Азия посвящён разработке технологий оптимизации авиаметеорологического обслуживания, включая проектирование и перспективное создание нескольких автоматизированных авиаметеорологических систем:
- система выпуска высокодетальных прогностических карт явлений погоды для нижнего воздушного пространства по России и ближнему зарубежью;
- система верификации прогнозов TAF (выпускаемых синоптиками официальных АМСГ РФ и ближнего зарубежья) и AUTOTAF (выпускаемых сайтом Метеоцентр.Азия) - выявление ошибок, онлайн-сопоставление с фактической погодой METAR, автоматическое внесение коррективов в прогнозы при резком отклонении фактической погоды от прогноза, подсчёт оправдываемости прогнозов по элементам и в целом;
- система обработки, анализа и отображения авиаметеорологической информации для применения провайдерами метеорологической информации.


Погода в Поныри - сегодня

Время (UTC), дата Ветер
(°,м/с) 
Видим.   Явления Облачность Т
(°С)
Тd
(°С)
f(%) Тe
(°С)
Pmin
(гПа)
dP
(гПа)
Po
(мм)
O2
(г/м3)
Тmin Tmax R s Состояние
почвы
00 26.03.17 230 (ЮЗ) 20000 м    10/10 600 м 
[Sc]
-2 -4.5 83 -1  1016.6  739  300           
03 26.03.17 тихо ()   10 км    8/4 600 м верхняя 
[Sc|Ci fib]
-2.4 -3.6 91 -2  1016.7  0.1  739  301  -3         
06 26.03.17 080 (В) 20000 м    9/0 верхняя 
[Ci]
+1.4 -4.5 65 +2  1017.6  1.4  740  297  -3         
09 26.03.17 090 (В) 20000 м    6/6 600 м 
[Cu med, cong]
+5.8 -8.9 34 +7  1017.7  0.4  740  293           
12 26.03.17 170 (Ю) 20000 м    9/9 600 м 
[Sc]
+5.1 -9.2 35 +5  1017  -0.7  740  293           
15 26.03.17 250 (З) 20000 м    9/0 средняя 
[Ac trans]
+4.9 -7.6 40 +5  1016.2  -0.8  739  293           
18 26.03.17 230 (ЮЗ) 20000 м    ясно 
+1 -5 64 1015.5  -1.1  738  297    +6.6       
21 26.03.17 250 (З) 20000 м    9/9 600 м 
[Sc]
+0.6 -4.4 69 -1  1013.3  -2.1  737  297           
00 27.03.17 250 (З) 20000 м    10/10 600 м 
[Sc]
+0.7 -5.4 64 -2  1008.8  -4.4  733  295           
03 27.03.17 240 (ЮЗ) 6-11{12}  4000 м  слаб. снег  10/10 300 м 
[Frnb|Ns]
-0.6 -1.2 96 -4  1002.2  -6.5  728  294  -1       
06 27.03.17 280 (З) 5-11{15}  10 км  в посл. час снег  9/9 600 м 
[Sc]
+0.2 -0.7 94 -3  1000.4  -1.7  727  293  -1    равномерный
мокрый или
старый снег
100% 
09 27.03.17 310 (СЗ) 7-15{15}  20000 м    8/8 600 м 
[Sc]
+3.4 -3 63 1000.8  0.8  728  290           
12 27.03.17 320 (СЗ) 7-13{17}  20000 м  {ливн. осадки}  6/6 600 м кучево-дожд. 
[Cb calv]
+5.8 -2.5 55 +3  1002.1  1.4  729  288           
15 27.03.17 360 (С) 5{14}  20000 м    6/6 600 м кучево-дожд. 
[Cb calv]
+5 -3.3 55 +3  1004.7  2.6  731  289         
18 27.03.17 270 (З) 20000 м    ясно 
+3 -3.5 62 +2  1006.2  1.2  732  292    +6.1  0.2     
21 27.03.17 230 (ЮЗ) 20000 м    ясно 
+1.5 -3.3 70 +1  1005.7  -0.7  731  293           
00 28.03.17 250 (З) 20000 м    ясно 
+2.3 -3.3 66 +1  1002.7  -2.8  729  292           
03 28.03.17 250 (З) 4{11}  10 км  слаб. снег  10/10 300 м 
[Frnb|Ns]
+0.6 -0.2 94 -2  999  -3.8  726  292  +0.2       
06 28.03.17 280 (З) 5{12}  20000 м  {снег}  3/3 600 м кучево-дожд. 
[Cb calv]
+5 +1.2 76 +3  997.1  -1.3  725  287  +0.2       
09 28.03.17 310 (СЗ) 9-18{19}  20000 м    6/6 600 м кучево-дожд. 
[Cb calv]
+7.5 -1.9 51 +5  997.1  0.2  725  285           
12 28.03.17 330 (СЗ) 9-16{18}  20000 м  {ливн. осадки}  6/6 600 м 
[Sc]
+6.4 -5 44 +3  1000.3  728  287           
15 28.03.17 340 (С) 9-16{20}  20000 м    3/3 600 м кучево-дожд. 
[Cb calv]
+4.4 -6.6 45 +1  1003.9  3.3  730  290      0.1     
18 28.03.17 330 (СЗ) 3{12}  20000 м    ясно 
+2.1 -0.7 82 +1  1007.5  3.3  733  293    +8.2  0.0     
21 28.03.17 280 (З) 20000 м    ясно 
-0.3 -6.7 62 -1  1010.6  2.6  735  297           
00 29.03.17 280 (З) 20000 м    ясно 
-0.7 -6 67 -2  1010.9  0.3  735  297           
Время (UTC), дата Ветер
(°,м/с) 
Видим.   Явления Облачность Т
(°С)
Тd
(°С)
f(%) Тe
(°С)
Pmin
(гПа)
dP
(гПа)
Po
(мм)
O2
(г/м3)
Тmin Tmax R s Состояние
почвы

Для получения пояснительной информации подведите курсор к названию столбца.

ПОГОДА в Поныри - архив

Всё, что Вы хотите узнать о погоде в Поныри - удобно и подробно!

Выберите нужную дату (начиная с 1 января 2015* года) и нажмите кнопку "Найти".
Будут отображены архивные сводки погоды по пункту Поныри, начиная с указанной даты.


Отображать данные в формате CSV (для использования в таблицах Excel)


Внимание! Наш архив погоды предназначен исключительно для личного некоммерческого использования в познавательных целях. Если Вам необходимы официальные справки о состоянии погоды (для производственных, юридических, коммерческих и т.п. целей), обращайтесь в органы Росгидромета.

*Примечание: данная дата относится к архиву по метеостанциям СССР (Россия, СНГ, Балтия).
Архив по метеостанциям Зарубежной Европы и Азии (кроме Китая) хранится 10 дней, по другим регионам земного шара (Китай, Африка, Америка, Австралия, Океания) - 1 день.

Поныри - район местоположения метеостанции


Название, широта, долгота, высота метеостанции:
Поныри 52.3°ш. 36.3°д. 251 м над ур. моря [Российская Федерация]

Дополнительная информация

В oтличие oт бoльшинства пoгoдных сайтoв мы публикуем пoдрoбную метеoинфoрмацию в детальнoм прoфессиoнальнoм фoрмате.

Характеристики температуры и влажнoсти вoздуха измеряются на высoте 2 м в тени вдали oт зданий и деревьев.
Скoрoсть ветра измеряется на высoте 10 м (на урoвне рoста челoвека скoрoсть ветра ниже в 1.5-2 раза). Если метеoстанция нахoдится в гoрoде или в лесу, тo скoрoсть ветра занижена на 2-4 м/с пo сравнению с oткрытым местoм. Скoрoсть ветра над акватoриями крупных рек и oзёр, а также на вершинах хoлмoв на 2-5 м/с выше, чем в oбычных услoвиях.
Атмoсфернoе давление в разных тoчках местнoсти мoжет значительнo oтличаться oт давления на метеoстанции, в зависимoсти oт услoвий рельефа (при пoдъёме на 10 м давление пoнижается примернo на 1 мм рт.ст.).